RH
18 24 29 22 16 14 14 13 13 12 11 10 12 22 30 30 29 25 20 18 16 13 11 11 13 13 13 13 15 16 15 16 17 18 18 18 19 18 16 14 13 12 12 12 12 11 12 13 13 13 14 25 31 32 43 57 70 69 58 57 51 45 47 44 43 42 38 39 37 36 39 38 36 40 42 42 44 51 54 57 60 56 50 49 47 45 49 52
14 16 19 18 15 14 14 13 13 12 12 11 9 13 19 23 24 20 17 15 13 12 12 11 10 12 13 13 14 14 13 16 18 18 18 19 18 18 17 14 13 12 13 12 12 12 12 14 13 14 21 27 28 30 32 42 60 59 51 52 42 36 45 47 43 42 42 42 40 37 38 39 36 38 41 38 34 40 44 44 53 52 42 41 39 37 41 45
13 14 15 15 15 13 14 13 13 13 12 12 10 10 10 13 15 14 13 12 12 12 11 11 10 10 12 13 13 13 14 15 16 18 18 19 19 19 15 13 14 13 13 13 12 12 12 14 13 17 25 25 25 28 29 34 44 48 50 45 35 37 44 48 49 45 46 46 41 36 37 38 37 40 41 35 31 32 33 31 40 45 38 34 32 29 33 38
13 13 14 15 14 13 13 13 13 13 12 12 12 11 10 10 10 12 13 12 12 11 11 11 10 10 10 11 13 13 14 14 15 17 18 20 20 17 14 14 14 13 13 13 12 12 12 14 15 20 25 23 25 28 27 32 36 42 46 33 31 44 39 39 48 46 46 44 36 31 33 34 33 39 39 34 32 27 25 26 29 32 29 30 31 28 27 32
13 13 14 14 13 12 12 12 12 13 13 13 12 12 12 11 10 10 11 12 12 11 11 11 11 11 10 10 12 13 13 12 15 18 18 20 19 16 14 14 14 14 14 13 13 12 13 16 18 21 22 20 24 26 22 31 40 39 38 31 33 44 36 33 43 43 40 36 31 29 29 29 30 35 37 34 32 25 20 23 26 27 26 28 30 28 26 28
13 13 14 13 13 11 11 12 13 14 13 13 12 12 12 12 11 10 10 10 11 11 11 11 11 10 10 11 11 13 13 13 17 18 17 20 19 15 15 15 16 15 14 13 14 13 15 21 21 20 20 18 20 21 18 29 40 31 26 32 36 42 40 37 42 40 36 32 27 27 27 30 30 29 31 33 30 25 22 24 25 25 26 27 27 27 27 27
13 13 13 12 12 10 11 13 13 13 13 14 13 12 12 11 11 11 11 10 10 10 11 11 11 11 10 11 11 13 13 14 17 15 16 21 17 15 16 16 17 17 15 15 16 15 16 22 21 20 19 18 18 19 19 27 36 31 24 28 32 38 40 38 39 35 33 31 27 28 28 27 26 23 28 31 26 24 23 23 22 21 23 26 26 27 27 28
13 13 13 12 11 11 12 12 11 10 11 13 13 13 12 12 12 11 12 11 11 10 10 11 11 11 10 10 12 14 14 14 14 14 18 19 16 16 16 17 18 18 17 15 17 18 18 20 20 20 18 18 18 19 24 24 26 29 25 25 30 33 32 30 31 29 29 29 27 29 27 23 23 24 27 25 20 21 21 19 18 18 19 21 22 22 23 26
12 12 12 11 11 12 12 10 9 9 11 13 13 13 12 13 12 12 12 12 12 10 9 10 10 11 11 11 12 12 14 14 15 17 18 16 16 16 16 18 19 18 19 17 17 19 20 19 19 18 16 18 17 20 27 22 19 25 24 25 27 25 25 26 25 24 25 27 28 26 22 21 23 25 24 19 16 17 17 15 15 16 17 16 17 17 18 20
12 12 12 11 12 12 11 9 9 10 12 13 12 13 12 12 13 12 13 11 12 12 10 9 9 11 11 11 12 11 15 18 20 20 17 15 16 16 17 19 19 20 20 18 17 19 21 20 19 19 17 20 20 22 28 24 23 28 26 26 25 22 24 24 23 24 24 26 28 24 20 19 24 26 19 16 16 15 15 15 15 17 17 16 16 17 17 18
12 12 11 11 12 11 10 8 9 11 13 12 12 12 12 12 12 12 12 12 12 12 11 9 10 11 10 12 12 12 17 20 21 21 19 17 15 15 16 18 20 21 20 19 18 18 20 20 20 20 19 21 23 25 28 26 26 27 26 24 22 21 22 22 22 25 25 24 26 26 22 20 26 28 19 17 18 16 16 16 16 17 17 18 18 18 19 18
12 12 11 11 12 10 9 9 10 12 12 13 13 13 13 13 13 14 14 13 13 12 10 10 10 11 10 12 12 12 17 18 20 22 20 18 17 16 15 16 19 21 21 20 20 19 19 20 20 20 20 20 22 24 25 26 26 25 25 23 20 18 18 21 24 28 26 22 27 27 21 17 23 24 17 17 18 15 17 16 16 16 16 17 17 17 17 15
12 11 11 12 12 10 9 9 9 10 11 11 12 12 12 13 14 15 15 13 12 11 10 10 11 11 12 14 16 15 16 18 20 22 21 19 19 17 14 15 17 20 22 21 20 20 20 20 21 21 21 21 23 25 24 26 26 25 26 24 21 18 17 25 29 29 26 23 27 26 16 10 14 17 15 16 15 15 17 16 16 15 14 14 14 14 13 13
11 11 12 13 13 11 11 11 10 10 10 10 10 10 10 11 12 12 12 11 11 10 10 11 12 13 15 17 19 20 21 22 22 21 20 20 19 16 14 14 15 18 21 22 21 21 21 21 22 23 23 25 27 27 26 25 25 24 26 26 23 18 16 25 30 27 24 25 28 27 20 11 9 12 16 16 15 17 18 16 16 16 16 15 14 15 13 13
11 11 13 13 13 12 13 13 13 13 12 11 10 10 10 10 11 10 11 11 11 11 12 13 15 17 19 20 22 23 22 22 22 21 20 19 19 16 15 14 14 15 19 22 22 21 22 22 22 23 25 27 27 27 25 23 22 23 23 22 22 20 15 21 32 32 25 25 27 26 21 14 10 13 16 17 16 20 20 19 19 19 19 18 18 18 17 16
11 11 13 14 13 13 14 14 15 15 14 14 12 11 11 11 11 11 12 14 14 17 18 20 21 21 22 22 22 21 20 21 21 19 18 17 16 15 15 15 14 14 16 20 22 22 22 22 24 26 25 25 24 24 23 21 22 24 22 19 19 19 16 18 32 39 31 26 27 25 21 16 13 14 16 18 19 22 23 21 20 19 19 19 20 21 21 21
11 11 13 14 14 15 15 15 15 15 15 14 14 13 13 14 15 15 16 18 19 21 21 22 23 23 22 21 20 20 20 20 18 17 15 14 13 14 15 16 16 17 18 19 22 23 23 24 26 25 25 24 24 23 22 19 16 19 23 21 19 20 20 17 24 35 34 29 27 26 26 23 17 16 18 19 21 22 21 19 18 19 19 19 19 20 21 21
11 11 14 15 16 16 16 16 15 16 15 14 15 15 16 16 16 18 19 19 20 20 20 21 21 21 21 20 20 21 20 18 16 14 13 13 13 14 16 17 18 20 22 22 23 23 23 25 26 24 25 25 25 24 20 17 14 16 20 20 20 22 22 19 21 29 33 33 32 30 29 25 19 17 17 17 20 20 19 19 18 18 17 16 16 17 20 21
10 11 14 15 16 16 16 16 16 16 16 18 21 21 22 21 18 19 19 18 20 21 21 20 19 18 19 20 20 20 18 16 14 13 13 14 14 15 16 16 19 22 23 21 21 25 25 26 27 25 25 25 25 24 20 18 19 21 24 24 24 23 23 20 21 31 36 35 34 32 30 25 19 17 15 16 19 19 17 15 15 16 16 17 20 23 26 26
10 10 12 16 16 16 17 16 15 16 17 23 26 26 26 25 24 26 23 21 22 22 20 19 18 18 19 20 20 19 17 14 14 14 15 15 14 15 14 15 19 21 23 25 24 28 29 26 25 23 21 22 23 23 23 23 25 28 30 30 27 26 24 20 24 38 42 35 28 28 29 24 19 16 13 14 15 13 13 14 16 20 22 25 29 34 37 38
10 9 11 15 16 16 17 17 16 15 16 21 24 24 23 22 24 26 24 22 22 21 20 21 21 21 20 21 20 18 16 15 15 15 15 15 15 14 13 16 20 18 26 37 33 29 31 26 24 23 21 23 24 25 28 30 32 32 31 28 27 28 25 21 27 38 40 33 26 25 27 21 16 13 11 11 12 14 17 21 26 29 32 35 40 45 47 49
10 10 10 14 16 15 16 18 18 16 16 17 19 20 18 18 21 22 22 23 23 22 22 23 23 24 23 22 20 18 17 17 16 15 15 15 14 14 14 16 18 19 30 39 29 25 28 24 23 27 27 29 32 32 32 34 36 34 30 29 29 26 22 22 29 35 35 31 24 23 25 19 15 13 11 12 15 22 28 31 36 40 43 45 49 53 54 55
10 10 10 12 14 14 15 18 18 18 18 17 17 17 16 17 19 22 23 25 27 26 24 24 24 25 23 21 20 19 19 19 16 15 16 16 16 18 17 15 19 23 28 28 21 18 17 18 27 33 31 30 34 37 36 35 36 32 29 29 27 24 22 21 26 31 32 29 25 25 25 19 15 13 12 17 23 30 35 38 44 47 50 53 55 58 59 60
10 10 10 10 11 13 15 17 18 19 18 18 17 16 18 18 19 22 24 27 30 28 25 27 26 24 23 22 21 21 21 20 18 17 18 18 17 18 18 19 23 24 23 24 25 19 14 23 37 37 31 27 29 36 36 30 27 26 29 30 26 24 24 22 23 27 25 25 26 22 18 14 14 14 12 17 25 31 38 42 46 50 54 58 59 61 64 64
10 10 10 10 10 12 15 16 18 18 18 18 18 17 18 18 20 22 23 26 27 26 28 29 26 24 24 23 22 22 22 21 20 19 20 20 18 19 21 23 22 18 24 33 31 22 21 34 41 33 30 30 28 31 31 28 24 22 26 29 27 25 25 26 26 24 18 17 19 15 12 10 11 11 10 16 25 31 39 44 47 51 55 59 61 63 66 68
9 9 9 10 10 12 15 16 17 17 18 18 17 19 18 19 21 22 26 27 21 26 34 29 26 25 24 24 23 24 23 22 22 21 21 23 21 22 23 25 23 21 33 37 26 22 28 38 39 30 30 33 29 28 29 30 26 21 25 30 31 29 28 29 26 23 17 13 14 14 13 13 10 8 10 17 28 35 39 44 49 52 56 60 63 65 68 71
9 9 8 9 10 12 14 16 16 16 18 18 17 18 17 20 22 21 27 25 16 26 36 30 27 26 25 27 26 26 25 23 24 24 24 23 23 23 23 26 26 29 41 32 16 23 30 31 34 30 29 29 26 25 27 31 26 23 30 32 28 27 26 26 24 20 17 15 17 15 13 15 13 12 18 21 28 40 43 46 50 53 57 61 64 68 71 74
8 8 9 9 9 11 14 16 16 15 19 22 20 18 19 22 20 20 24 18 14 29 35 29 27 25 24 27 27 28 28 27 25 26 27 25 25 24 23 28 26 30 43 29 11 23 28 24 28 29 27 24 23 26 31 33 24 23 33 32 27 25 23 22 21 19 19 19 22 16 13 17 15 13 21 25 33 47 51 50 52 55 60 64 67 71 73 77
9 8 9 10 10 11 12 15 17 15 18 24 24 21 21 20 17 20 20 13 17 30 32 29 28 26 26 28 29 30 29 29 27 26 29 29 28 26 24 29 32 35 44 34 18 22 27 27 27 27 23 21 27 36 38 33 26 30 36 31 28 27 24 24 22 21 22 25 26 17 12 16 16 18 26 33 46 58 56 52 53 58 63 66 69 73 75 78
9 10 10 11 12 11 11 14 17 17 18 22 25 23 20 17 18 20 16 12 19 26 27 28 29 31 32 31 32 31 31 31 28 26 29 28 27 27 28 33 36 35 36 36 29 24 30 39 37 33 29 27 33 40 42 40 36 37 33 23 22 22 22 25 23 24 26 24 24 18 14 14 16 26 40 46 55 63 62 57 57 60 63 66 70 74 76 80
10 11 11 13 13 13 15 16 17 19 20 20 24 25 20 20 25 21 13 17 24 26 26 30 37 40 38 36 31 31 37 37 34 32 28 27 27 26 28 30 30 28 24 26 28 25 28 35 35 38 38 34 32 33 40 42 35 30 25 19 22 19 18 22 22 25 25 20 21 21 18 15 15 29 47 53 55 58 62 65 63 63 65 68 72 74 78 83
11 11 12 14 14 15 18 19 21 22 22 22 24 22 20 21 21 18 18 21 22 25 28 35 44 45 42 38 31 34 39 35 37 41 35 31 28 26 30 27 21 22 20 17 19 19 19 23 31 39 40 36 29 23 29 33 28 26 23 22 26 23 21 23 22 22 22 19 21 22 19 18 21 36 50 54 54 55 59 64 66 68 69 70 72 76 81 85
10 11 12 14 15 17 18 22 25 22 22 25 22 21 23 20 15 21 29 22 17 27 35 40 44 42 39 32 27 37 40 30 34 43 42 37 28 26 34 34 26 20 18 16 16 16 16 23 32 33 33 37 31 19 20 24 24 25 23 22 26 27 28 31 26 24 25 22 19 19 21 21 27 43 52 51 53 55 57 62 68 72 74 75 77 78 81 84
10 10 13 15 17 18 19 25 26 21 23 24 21 21 21 17 18 27 30 22 24 35 40 42 40 34 33 28 28 36 31 26 33 36 34 28 20 20 25 29 29 20 14 16 17 18 18 19 25 26 27 34 32 22 18 18 20 23 20 21 25 26 31 35 30 29 31 24 19 20 23 23 27 41 51 52 54 55 57 60 65 71 76 79 82 82 82 84
11 12 13 15 18 18 20 26 25 22 21 21 24 26 21 19 23 24 25 27 32 38 39 39 32 23 23 24 30 37 26 22 30 27 24 22 18 21 23 24 27 21 17 22 21 20 18 13 21 34 35 33 31 28 23 19 20 23 18 18 24 23 23 28 27 27 30 27 25 23 23 29 38 46 51 53 54 53 54 58 60 69 75 77 81 84 83 84
14 14 14 15 17 18 20 24 24 23 21 19 25 26 21 23 21 21 34 40 36 37 35 30 23 18 20 21 24 32 28 24 26 21 20 22 21 23 24 26 31 27 21 25 25 22 21 17 23 34 35 32 33 31 27 24 20 20 20 20 22 19 19 25 27 24 26 31 29 22 21 31 41 47 51 52 54 52 52 57 59 67 76 77 79 84 84 83
15 14 16 16 17 18 18 20 22 23 21 20 27 29 25 26 23 27 46 49 41 38 30 22 22 21 23 24 20 25 27 24 25 22 17 19 21 23 24 26 33 33 26 25 25 24 26 24 23 28 28 31 40 39 35 34 25 19 23 24 21 20 19 22 29 32 34 37 33 23 25 29 28 38 52 56 59 58 53 54 59 66 75 79 78 81 84 84
19 16 17 17 17 18 18 19 21 22 21 25 37 43 37 34 34 40 52 52 42 34 26 22 23 23 24 25 23 27 29 24 24 22 17 16 19 25 28 26 30 34 33 30 25 24 28 27 25 29 27 28 37 35 31 35 30 23 24 23 22 30 30 26 35 43 45 49 44 33 34 31 25 39 59 64 66 66 60 57 60 65 73 78 78 78 82 85
23 19 21 20 19 19 19 21 21 20 22 27 34 39 36 38 46 53 59 56 42 31 26 24 23 24 26 26 26 29 32 29 27 24 20 17 21 32 36 31 30 32 34 33 27 24 27 27 28 29 27 25 26 25 26 29 28 27 26 24 22 29 33 32 36 39 44 51 50 44 40 34 36 53 65 68 68 68 67 66 66 69 73 75 77 79 80 84
23 22 25 23 21 22 23 23 22 25 30 31 32 36 40 44 52 61 64 57 45 36 31 27 27 29 29 30 31 31 31 31 29 26 22 19 24 35 41 39 35 33 34 34 28 26 26 25 26 25 24 25 22 22 26 24 24 29 32 34 33 31 30 34 36 35 41 45 45 55 53 37 45 63 66 67 67 63 67 71 70 71 72 68 68 74 77 79
21 27 30 24 22 24 23 24 33 40 40 37 37 42 52 56 58 65 69 63 54 47 39 33 33 34 33 34 33 32 32 31 31 28 24 24 29 35 42 47 46 37 33 33 29 29 29 27 29 29 26 25 22 22 25 23 23 30 35 37 37 36 35 42 47 41 43 47 48 63 65 48 54 65 62 62 62 58 65 71 69 68 70 67 63 66 72 75
21 31 33 26 26 26 22 32 51 51 38 34 38 47 61 66 59 60 66 63 54 50 45 39 39 39 37 36 34 34 34 31 32 29 24 30 38 41 45 52 52 42 35 36 34 34 34 31 34 35 29 24 22 23 26 27 26 30 37 36 34 39 43 51 58 51 51 55 52 60 66 60 66 68 62 62 58 56 64 66 62 59 62 65 63 61 65 72
23 30 29 27 28 26 24 36 52 50 42 45 49 53 62 63 54 52 58 56 49 46 42 40 42 41 37 38 37 35 34 31 30 28 26 32 41 48 53 53 50 44 40 39 37 36 36 33 36 35 27 21 24 25 25 28 31 34 39 40 41 48 52 55 57 56 61 62 54 60 65 61 67 70 64 62 58 56 60 58 54 53 51 55 60 61 59 66
25 28 27 27 26 24 28 36 44 48 50 50 47 48 54 57 57 55 53 54 53 46 39 39 41 38 38 44 42 37 37 33 29 30 30 32 38 48 56 52 46 46 48 49 47 45 36 30 35 39 31 26 26 25 24 29 34 36 41 48 51 57 65 66 58 56 65 60 53 69 71 55 60 68 59 56 57 56 56 54 52 51 50 51 55 57 51 56
24 26 26 26 22 22 33 39 42 49 53 45 38 41 45 48 56 59 55 59 62 54 43 41 45 45 44 46 44 41 40 35 32 35 36 34 36 45 53 51 46 50 58 59 55 50 41 33 35 38 37 33 26 23 28 35 37 38 47 58 62 67 75 70 59 63 73 67 62 75 74 55 50 52 49 50 53 52 53 54 52 51 52 52 52 53 49 50
21 29 31 28 23 24 34 37 35 40 47 42 36 40 40 36 43 54 56 55 58 60 53 46 48 48 43 42 43 41 40 38 36 39 42 41 41 46 52 51 47 49 56 56 49 46 43 37 35 37 37 35 31 30 32 35 39 42 53 67 73 80 80 69 67 74 79 82 77 67 65 66 57 46 46 51 52 53 54 53 54 54 55 55 54 54 52 50
21 36 40 32 26 29 36 39 38 39 41 39 37 40 40 35 35 41 47 47 49 55 54 48 48 46 44 47 46 42 43 41 38 43 49 50 50 49 49 50 49 46 48 47 41 40 37 34 44 55 50 40 38 35 30 35 44 46 53 65 72 80 81 76 78 75 72 87 88 61 58 76 68 50 51 57 59 60 58 55 57 57 56 57 56 55 53 51
23 34 36 30 30 38 41 41 46 49 46 44 45 44 40 39 39 38 40 43 44 46 42 37 42 49 53 53 47 45 45 36 38 54 58 57 61 56 47 49 49 44 44 44 41 42 34 34 58 73 59 43 37 33 33 42 47 45 50 58 62 71 82 85 83 71 68 87 88 65 63 73 62 51 56 62 63 61 60 62 63 61 59 58 56 54 53 53
25 29 32 30 36 49 52 48 46 46 47 48 48 45 40 39 43 44 44 42 38 39 37 30 36 51 56 47 40 47 47 35 42 64 69 69 75 66 52 52 51 45 45 46 48 47 34 37 67 81 63 46 37 37 47 50 46 47 54 57 57 62 72 78 76 65 64 73 64 54 61 60 49 53 61 60 58 56 58 64 65 64 63 58 55 56 54 58
22 23 29 33 38 47 49 48 43 37 40 44 43 44 44 41 41 46 51 49 36 32 36 35 40 54 56 40 33 44 48 42 47 59 64 68 70 65 56 54 55 51 47 50 54 46 29 36 69 79 56 40 42 49 50 42 41 53 57 54 58 64 67 72 71 65 68 69 56 54 65 56 44 55 63 58 56 56 55 59 62 63 63 57 55 57 58 66
18 19 22 27 40 47 43 45 46 38 37 40 40 44 45 41 43 47 52 55 46 40 45 46 46 54 51 37 34 43 49 52 54 55 58 60 62 65 62 60 62 55 51 61 63 52 40 39 55 64 45 31 46 55 42 34 48 68 70 64 66 73 75 72 63 59 64 70 69 69 67 54 49 59 63 57 56 55 53 56 60 62 62 58 56 60 69 79
17 19 17 20 38 50 47 46 43 38 40 45 47 50 46 43 49 49 44 47 47 45 49 51 47 47 43 34 36 48 55 61 64 66 71 72 71 70 65 63 65 57 58 67 63 64 69 48 37 51 43 29 44 48 29 28 50 69 74 71 70 74 72 63 54 49 50 58 69 69 57 52 59 65 65 62 59 55 54 56 59 63 63 59 59 70 80 80
Wind_Speed
5 3 7 9 6 5 5 5 5 5 5 6 6 7 7 7 8 7 7 6 5 4 2 2 2 2 3 4 4 3 2 2 2 2 2 3 3 5 7 7 6 6 6 6 6 6 6 5 6 6 5 6 5 5 6 5 5 6 4 5 6 6 6 4 6 4 4 7 4 1 2 6 8 4 5 8 11 12 13 16 17 20 22 23 23 23 24 24
5 4 6 8 8 7 6 5 5 5 5 6 7 8 9 9 8 7 7 6 5 4 3 2 2 2 3 4 4 3 3 3 3 4 4 3 2 6 7 7 6 6 6 6 5 5 5 5 6 6 7 6 5 5 6 6 7 7 4 4 7 6 3 2 5 6 6 9 11 8 4 6 9 6 4 7 11 11 12 15 15 19 23 24 24 23 24 25
6 5 6 7 8 7 7 6 6 6 6 6 7 8 9 9 9 8 7 7 6 5 4 4 3 2 3 3 3 3 3 4 4 4 3 1 3 6 6 6 6 6 6 5 5 4 3 4 5 6 7 6 4 5 6 6 7 7 5 6 7 5 5 5 7 9 8 10 12 10 5 6 10 7 4 8 13 13 14 15 13 16 21 22 22 21 23 25
6 5 6 7 8 8 8 7 7 7 7 7 7 8 8 8 8 8 7 7 7 6 5 4 3 3 2 2 3 3 3 4 3 3 1 1 5 6 6 6 6 6 6 5 4 3 2 4 6 7 7 6 4 5 6 6 6 3 5 8 5 1 6 7 7 10 9 8 10 8 6 7 10 8 8 10 12 14 17 18 15 16 18 18 18 20 21 22
6 6 6 7 8 9 9 9 8 8 8 8 8 9 8 8 7 8 8 8 8 7 6 5 4 3 2 2 3 3 2 3 3 3 1 2 6 7 6 7 6 6 5 5 4 2 1 3 6 7 6 4 4 5 5 7 7 3 7 11 8 4 7 7 5 8 9 7 9 7 7 9 9 9 13 13 11 16 20 15 14 17 18 18 19 22 21 22
6 6 6 8 9 10 11 10 9 8 8 8 8 8 8 8 7 7 8 8 9 9 7 6 4 4 3 2 2 4 3 2 4 2 3 4 7 7 6 6 6 7 6 5 4 1 2 4 6 5 4 3 4 5 3 6 8 7 8 9 9 9 9 10 6 9 10 7 8 7 9 10 10 13 14 18 24 30 28 20 23 26 23 24 24 25 25 25
6 6 7 9 11 12 12 11 8 7 7 8 8 8 8 8 8 8 8 9 9 10 9 8 6 5 3 2 2 5 6 3 2 3 5 5 7 7 6 5 6 7 6 4 2 0 3 6 6 5 4 3 4 5 2 4 8 8 8 6 8 9 11 13 10 13 13 10 11 9 11 12 13 14 10 21 35 37 33 31 33 35 31 31 30 30 30 30
6 6 8 10 12 13 12 10 9 7 5 6 7 7 7 7 8 8 8 9 9 9 9 9 8 6 4 3 3 5 6 5 4 4 5 6 7 6 5 5 5 6 6 4 2 1 2 5 7 6 5 3 3 4 3 4 7 9 10 8 6 8 11 13 14 16 16 14 13 10 13 16 18 13 11 30 45 37 34 36 34 33 33 33 32 33 33 33
6 6 8 11 12 12 11 10 10 7 4 4 5 6 6 7 7 8 8 9 9 8 8 9 8 7 5 4 4 4 3 2 2 3 5 6 6 6 5 5 6 6 6 5 3 2 3 4 6 6 5 3 4 4 3 4 5 6 8 7 6 10 10 12 15 14 14 11 8 9 14 18 16 10 16 35 39 28 24 24 21 23 25 26 28 29 30 31
5 6 8 11 12 11 9 9 7 4 1 2 4 5 5 6 6 7 7 8 8 7 7 8 7 6 5 4 4 2 1 2 0 3 5 5 6 6 6 5 6 6 6 5 3 3 4 4 5 5 5 4 5 4 4 4 3 3 6 8 11 15 12 12 14 11 10 7 5 9 14 19 10 2 14 20 14 14 17 18 19 20 22 24 25 25 27 28
5 6 8 10 10 8 7 5 2 0 1 2 2 3 4 4 4 5 6 6 7 7 7 7 7 6 5 5 5 2 2 3 1 4 5 6 6 7 7 6 6 6 6 5 4 4 5 5 5 4 4 3 3 4 5 7 6 5 8 10 13 14 12 12 12 9 6 4 3 6 15 19 5 4 19 20 14 20 22 24 24 22 24 25 25 25 26 27
4 6 8 8 6 5 5 4 2 2 3 3 4 4 4 3 3 3 4 6 6 7 7 7 7 6 5 5 6 4 3 5 5 6 5 6 6 7 8 8 7 7 6 6 5 4 4 5 5 5 4 3 2 2 4 4 5 6 6 9 12 12 10 6 4 2 1 1 1 4 13 14 10 12 24 21 20 22 21 23 24 24 27 25 24 26 26 27
4 7 7 5 3 4 5 5 5 5 5 5 5 5 5 4 4 4 5 6 6 6 6 6 6 5 4 4 4 4 4 5 6 6 6 7 7 8 9 8 8 8 7 7 6 5 5 4 4 6 6 4 2 2 3 2 4 6 3 4 10 10 5 0 1 0 2 1 1 2 9 10 7 13 16 13 16 17 17 21 23 23 26 27 28 29 30 31
4 6 5 3 2 3 5 7 8 8 8 8 7 7 7 6 6 6 6 5 6 6 6 5 4 4 4 3 2 2 4 5 6 7 7 8 8 9 9 8 8 8 8 8 7 5 5 5 4 5 6 5 3 3 4 2 2 4 2 2 4 6 1 3 2 1 2 2 2 3 5 11 11 4 5 9 12 12 15 19 21 22 25 30 32 34 36 36
3 5 3 1 2 4 6 8 9 9 9 9 8 8 7 7 6 6 6 6 5 5 4 4 3 3 2 2 3 3 3 5 6 7 7 8 9 9 7 7 8 8 8 9 8 6 5 4 4 2 2 4 4 4 4 3 2 2 4 3 2 3 3 1 3 1 2 2 3 4 5 11 15 6 2 4 6 7 14 21 24 25 26 29 30 31 35 36
3 3 1 2 3 5 7 7 8 8 8 9 8 8 7 6 6 6 6 6 5 5 4 3 3 2 2 1 2 2 2 4 6 8 9 10 10 9 7 7 7 7 8 9 8 7 5 4 4 3 2 3 3 3 4 5 3 2 3 5 3 4 7 3 3 2 1 2 3 6 6 10 12 4 4 6 11 13 16 25 26 24 25 25 24 24 26 29
2 3 2 3 3 5 6 6 6 7 7 8 8 7 6 5 5 5 5 5 5 4 3 2 2 3 3 2 2 2 3 4 7 9 10 11 11 9 7 6 6 6 6 7 7 6 5 3 2 3 2 1 1 2 4 5 3 1 2 5 5 6 7 5 1 3 3 3 5 6 9 16 17 15 17 16 16 16 17 23 24 23 24 23 23 23 22 24
2 3 4 4 3 4 5 4 5 6 7 8 8 7 6 5 4 4 4 4 3 2 3 4 4 3 2 3 3 2 4 6 8 10 11 10 9 7 7 6 5 5 4 5 6 6 5 2 2 3 2 3 3 4 5 4 3 4 4 5 6 6 7 8 5 2 2 4 6 7 11 19 22 22 24 17 10 13 17 20 22 23 23 23 23 23 23 24
2 4 5 4 3 3 3 3 3 4 5 6 7 6 5 4 2 3 4 5 4 3 3 3 4 3 1 2 3 5 7 9 9 9 8 8 7 7 7 6 5 5 4 3 4 4 3 2 3 4 4 5 6 7 8 6 5 6 6 6 8 8 9 11 6 2 1 5 9 10 12 18 21 20 22 15 5 10 17 18 18 20 22 24 25 25 26 25
2 4 5 6 4 3 2 1 2 3 3 4 5 4 3 3 0 2 4 7 8 8 7 6 6 6 5 4 6 7 9 9 7 7 7 7 6 6 6 6 5 6 4 2 1 2 1 4 5 7 6 5 5 7 6 3 3 5 5 7 9 9 11 11 3 4 3 4 9 8 9 16 20 20 21 15 10 14 18 19 21 24 24 24 25 26 26 27
3 5 6 7 6 4 3 2 1 1 2 2 3 3 1 2 2 1 3 6 8 10 11 10 10 9 7 7 8 8 7 6 6 6 6 6 5 4 4 3 3 4 2 1 0 1 1 6 7 6 5 3 0 3 3 1 2 5 6 8 9 8 11 11 2 4 3 2 6 3 7 16 19 22 20 12 16 18 21 23 24 24 23 23 25 27 27 28
4 5 6 7 7 5 4 4 2 1 1 1 2 2 4 4 3 3 4 4 5 7 8 9 8 8 7 7 7 6 5 4 4 4 4 5 4 3 2 2 3 2 1 2 2 2 4 8 5 1 3 3 3 2 3 4 5 5 5 6 8 5 8 8 2 3 3 3 6 4 8 14 18 23 13 14 19 18 23 24 22 23 24 25 27 28 29 32
4 5 6 7 7 6 6 6 5 3 1 1 2 3 4 3 3 3 4 4 3 4 4 4 4 4 4 3 4 6 5 3 2 2 4 5 4 3 2 2 2 1 1 4 5 4 4 4 2 3 4 4 2 3 4 3 4 6 5 5 8 4 3 5 1 3 3 5 7 9 11 12 16 14 6 20 21 22 22 22 23 24 24 25 27 28 31 34
4 5 6 7 7 7 7 8 7 5 3 2 3 3 3 2 3 5 5 3 2 2 3 2 1 1 1 2 4 5 4 3 3 4 5 5 3 2 1 1 2 2 2 4 6 9 7 0 3 3 3 2 1 2 4 4 5 7 8 7 10 8 6 7 4 5 6 7 5 9 10 7 7 4 8 15 18 23 21 23 26 26 25 23 24 28 31 33
4 5 6 6 7 7 8 9 9 7 5 3 3 3 2 2 4 6 4 1 1 1 2 2 3 2 3 3 4 6 5 4 4 6 5 5 3 2 0 1 2 2 2 2 3 8 7 2 3 1 1 2 4 3 4 5 6 6 6 7 12 12 10 9 8 8 7 4 3 3 8 6 1 4 6 8 13 18 19 23 25 26 27 25 26 30 31 31
4 5 6 7 7 8 9 9 8 7 6 4 3 2 2 3 5 6 4 0 1 2 2 2 3 3 4 4 6 8 5 2 3 6 6 5 4 3 1 2 2 1 2 2 3 4 2 3 2 1 2 2 4 5 3 5 6 6 1 2 7 8 8 8 7 5 6 6 1 1 5 7 5 1 5 9 12 14 17 20 22 25 26 25 27 30 32 33
4 5 6 6 7 8 9 8 6 5 4 4 3 3 3 4 6 6 3 1 1 2 2 3 3 3 4 5 7 7 4 4 6 5 3 3 2 2 3 1 1 1 2 2 4 1 2 2 2 2 2 2 3 3 3 7 5 3 1 2 2 2 4 5 5 5 5 8 4 5 6 8 8 1 9 9 9 14 17 17 20 23 24 26 30 33 33 32
4 5 5 6 7 9 9 7 4 4 3 2 2 2 3 4 6 5 2 1 1 2 2 3 3 2 5 8 8 4 4 7 5 2 2 3 2 2 3 3 2 1 2 3 5 0 2 0 1 2 1 2 1 2 1 8 6 1 2 2 1 1 3 3 5 6 4 6 6 6 9 6 7 2 9 10 8 14 17 15 17 21 25 29 31 31 29 29
4 4 5 6 8 9 10 7 4 3 4 3 3 2 2 4 5 2 1 1 1 2 2 3 2 3 8 9 6 2 3 4 3 4 5 4 3 2 3 2 1 1 1 2 6 3 1 1 1 1 2 2 1 2 1 6 5 1 2 1 1 2 1 1 4 4 1 5 7 4 10 6 6 0 7 9 8 11 14 12 15 21 26 27 26 27 27 27
3 4 5 6 8 10 10 8 5 3 4 4 3 1 1 3 2 1 2 1 1 2 2 2 2 4 9 7 2 4 3 2 5 8 5 3 3 3 4 3 1 2 1 2 6 6 2 2 2 0 2 1 3 2 1 2 1 1 2 3 3 4 2 1 2 1 2 5 4 1 7 7 4 2 6 6 6 9 10 10 14 19 22 22 23 23 22 22
3 4 6 7 8 9 9 8 5 2 3 5 5 2 1 2 1 1 2 1 0 3 3 2 2 3 6 5 2 4 3 2 6 7 4 3 3 2 2 2 1 2 2 1 3 5 2 2 2 0 2 3 3 2 1 1 1 1 2 4 5 3 2 2 2 2 4 4 2 3 2 6 6 1 6 5 5 7 8 9 12 16 19 19 21 20 20 23
2 4 6 7 8 8 8 6 4 3 3 4 5 2 1 0 0 0 1 2 1 2 2 1 2 3 3 1 1 4 4 2 4 4 3 3 2 3 3 3 3 3 2 2 3 3 1 1 2 1 2 3 3 2 2 3 2 2 3 3 5 5 2 3 3 2 4 3 2 2 1 3 3 2 6 6 5 6 7 9 10 14 17 18 20 21 22 24
1 3 4 6 7 7 7 6 5 4 4 4 4 2 1 1 1 1 1 3 1 1 2 1 1 3 4 1 2 4 2 1 4 3 1 2 2 3 1 1 3 3 2 3 5 5 2 2 1 2 2 2 3 2 2 0 1 2 2 3 4 5 4 6 6 5 5 4 2 4 1 3 2 4 6 6 6 6 7 9 9 12 15 16 19 21 22 23
3 3 4 5 7 7 7 6 6 5 5 6 5 2 1 1 0 1 1 2 1 1 1 1 2 2 1 1 3 4 2 1 3 3 2 2 2 3 3 3 4 2 3 4 2 3 3 1 1 1 1 1 2 2 3 2 1 0 2 2 3 4 4 5 6 7 8 8 3 2 0 3 1 5 7 6 6 8 8 9 9 11 13 15 17 19 22 24
5 4 4 5 6 7 6 7 7 5 6 6 3 2 1 0 1 1 1 1 2 3 2 1 1 1 1 2 1 1 1 1 3 3 3 3 3 4 4 6 7 4 3 4 2 1 5 2 3 2 2 1 2 0 1 3 1 1 1 2 2 2 3 5 7 6 6 8 6 3 2 2 3 5 8 5 5 9 11 11 11 13 14 16 17 19 21 22
7 6 5 4 5 6 6 7 8 6 6 5 2 2 1 1 1 1 0 1 1 3 4 1 0 1 1 1 0 2 1 1 4 4 2 2 3 4 3 4 6 5 4 4 3 2 5 3 3 4 1 1 1 1 1 3 2 1 2 3 2 1 3 6 7 3 2 7 6 4 4 1 3 4 7 3 4 8 11 13 14 15 15 17 18 19 19 20
8 6 5 5 4 5 5 5 7 7 5 3 2 1 0 1 1 1 0 1 1 1 3 2 2 3 2 1 2 4 3 1 2 4 1 1 2 5 4 2 3 4 3 3 2 2 4 6 1 4 2 2 1 2 2 2 2 2 2 4 3 2 3 2 4 3 5 8 6 6 9 6 4 3 5 1 7 10 11 13 14 16 16 16 17 19 18 19
5 6 6 5 5 5 5 4 5 7 5 2 2 2 1 1 1 1 1 1 1 1 1 2 2 2 2 1 2 4 5 3 3 3 2 1 2 5 5 2 4 6 5 3 2 2 2 6 2 2 2 2 2 3 2 1 1 2 3 3 3 2 2 1 2 4 7 9 8 9 12 10 7 2 2 5 9 11 12 13 13 16 18 18 19 22 21 20
3 4 6 6 6 7 5 5 6 7 5 2 1 2 0 1 1 1 1 1 1 1 1 1 1 1 1 1 2 2 2 3 4 3 2 2 2 5 6 3 4 9 7 3 2 2 1 3 3 1 2 1 2 1 5 3 1 1 2 1 0 1 4 4 3 4 6 9 9 10 10 7 2 2 4 7 9 10 12 12 12 16 18 19 20 22 23 22
3 3 5 5 6 6 5 7 8 5 3 1 1 1 0 0 1 1 1 1 0 1 1 1 0 1 2 1 1 2 1 2 3 3 2 3 1 3 6 5 4 8 8 2 1 2 1 3 4 3 2 2 2 3 6 6 0 1 1 2 2 3 4 5 4 2 3 8 9 8 10 6 2 4 3 6 8 10 11 11 12 14 16 18 20 20 21 21
3 3 4 4 6 7 8 8 6 4 2 1 1 1 0 1 1 1 1 1 1 2 2 1 1 1 2 1 1 1 2 2 1 1 1 3 3 3 5 7 5 6 6 1 0 3 2 2 5 7 5 6 7 5 3 4 1 3 3 3 4 4 4 5 5 0 0 6 7 8 12 7 3 3 4 6 7 9 11 12 13 16 17 19 21 22 21 20
4 3 3 5 7 7 7 5 3 2 1 2 2 2 1 1 1 1 1 1 2 2 2 2 2 2 1 2 1 1 2 2 1 2 1 3 4 2 6 11 7 5 4 1 0 2 2 2 4 7 7 9 8 5 4 1 3 5 3 4 2 3 2 5 8 6 5 6 4 7 12 6 3 3 4 7 7 9 11 12 14 17 18 19 22 23 23 22
7 6 4 6 7 6 4 2 1 1 2 2 2 2 2 2 2 2 2 2 2 2 2 2 2 2 2 1 1 1 2 1 0 2 2 3 3 1 6 13 9 3 3 1 0 2 1 1 3 6 7 7 4 3 4 2 3 2 3 4 1 1 2 4 7 7 8 9 7 7 10 4 3 2 3 6 7 8 10 12 14 16 18 20 21 22 25 25
10 10 6 4 5 4 2 1 1 2 1 1 2 3 3 4 4 3 2 4 4 2 2 2 2 2 1 0 1 1 2 1 1 1 1 2 2 2 7 13 12 5 4 3 2 4 2 1 3 5 7 5 1 1 1 1 1 3 3 3 3 2 3 4 4 4 6 9 8 7 9 5 3 3 3 7 8 8 9 11 13 16 18 21 22 22 27 29
9 7 7 6 3 3 3 3 2 2 1 1 3 3 2 3 5 5 3 4 5 3 1 2 1 2 1 0 0 1 2 1 1 1 2 1 1 3 8 12 12 9 5 4 3 3 3 2 2 4 5 6 6 5 4 4 5 4 1 2 3 3 3 3 4 5 6 6 7 7 9 9 6 5 6 9 11 12 13 14 15 17 20 22 23 24 28 30
4 2 3 5 6 7 9 6 4 4 3 1 2 2 2 2 3 5 5 4 6 5 3 3 2 1 2 2 1 2 3 1 1 1 2 3 1 3 9 9 10 11 7 6 4 1 1 1 2 4 5 6 8 10 9 9 9 8 6 2 3 2 1 3 4 6 5 7 7 7 10 14 15 16 14 13 14 15 16 18 17 19 21 22 24 27 31 31
3 1 1 2 5 9 10 9 7 4 2 1 1 1 3 3 1 3 4 4 5 6 3 3 5 2 2 4 2 2 4 3 1 1 1 3 1 5 9 5 8 12 8 6 8 2 1 2 1 1 6 8 11 14 14 11 8 10 12 6 4 3 1 1 3 5 7 6 6 9 16 17 16 18 17 14 13 13 17 20 19 19 23 25 28 32 34 32
2 3 3 3 2 2 4 6 8 7 4 3 2 1 2 3 3 3 4 2 4 6 3 2 6 6 3 3 1 2 5 4 1 2 1 1 1 5 6 3 6 14 9 6 9 5 1 2 2 0 6 10 14 15 12 8 7 10 11 7 6 5 3 3 3 5 7 6 8 13 18 17 17 17 14 11 12 16 20 21 21 22 25 29 34 36 35 32
7 7 5 5 5 4 3 3 5 7 6 4 3 2 2 4 4 2 3 2 2 6 6 2 5 7 3 2 1 2 4 3 1 1 1 0 1 2 3 1 3 11 10 5 5 4 1 1 2 2 7 10 12 9 3 4 9 9 5 6 7 6 5 6 5 7 9 9 11 15 17 18 16 11 9 11 15 19 22 22 23 26 28 32 35 34 33 30
7 7 7 10 10 7 5 3 2 4 4 4 3 2 2 3 4 2 3 4 2 4 5 3 4 4 1 3 4 3 1 2 4 4 3 1 1 1 0 1 1 6 8 3 2 4 4 2 2 1 5 7 4 1 2 7 10 6 4 8 9 8 7 8 8 10 10 11 14 17 16 15 10 8 11 15 17 20 22 23 24 26 28 31 33 32 30 25
7 9 11 13 7 6 5 3 2 2 2 4 3 1 1 2 2 2 3 5 4 3 3 4 4 2 1 3 5 2 3 6 9 10 7 5 2 0 1 1 1 3 4 2 1 4 4 2 0 0 5 4 2 1 10 10 2 3 6 9 10 8 7 8 9 9 9 12 16 17 13 11 9 10 14 18 21 24 26 26 25 26 28 30 29 28 26 21
11 12 10 8 4 5 5 2 2 2 2 2 3 1 1 2 1 3 3 3 4 4 3 4 3 2 1 3 6 7 10 9 9 10 8 7 4 1 2 2 2 1 1 1 1 1 1 2 2 2 5 3 2 6 13 8 2 3 5 6 6 5 5 8 10 11 12 11 11 12 12 11 12 13 15 18 22 26 28 27 26 27 28 28 26 24 22 23
Wind_Direction
321 330 331 330 334 339 322 301 280 253 238 232 219 204 194 187 184 184 183 183 188 180 165 142 131 171 186 177 172 173 193 239 258 260 285 261 268 336 346 341 335 326 317 308 299 290 279 261 244 226 211 200 202 204 194 190 188 197 222 244 250 251 253 257 261 272 312 300 297 264 244 281 295 295 275 282 260 243 249 249 244 247 252 254 259 265 267 269
292 279 292 303 316 325 320 312 299 273 250 239 227 217 211 207 206 203 198 194 194 188 179 174 174 203 206 203 203 216 241 271 287 273 269 255 305 349 349 340 337 331 324 315 303 289 267 253 242 217 195 195 206 200 204 201 195 216 242 248 253 259 266 281 272 271 278 287 299 302 277 272 286 297 285 280 271 248 249 252 239 246 257 260 262 267 266 266
285 273 270 286 304 310 311 313 304 288 268 249 237 228 221 218 219 215 212 208 200 200 195 195 216 226 223 229 231 240 265 296 292 269 256 261 343 346 343 341 342 334 328 322 307 294 258 230 224 205 195 208 205 189 202 199 205 225 234 253 260 262 275 264 253 261 271 287 298 299 289 271 273 277 267 271 281 267 254 254 235 238 256 264 269 273 269 265
278 270 275 289 300 303 305 305 299 290 274 258 244 236 230 223 223 221 220 219 215 215 208 208 220 225 234 251 256 247 276 297 259 221 202 331 340 340 341 344 348 342 335 333 329 317 260 209 206 195 203 221 193 193 214 202 204 204 211 253 279 288 276 260 242 262 276 284 287 293 298 282 270 262 248 260 281 271 261 257 243 251 268 270 270 274 271 266
273 270 284 295 299 300 303 303 298 286 272 258 244 238 236 229 226 225 225 227 228 227 225 228 228 237 250 256 257 222 261 287 177 132 61 335 339 339 340 347 352 350 347 345 355 344 247 185 191 193 213 232 189 206 223 203 207 228 231 253 274 261 270 271 258 271 280 282 277 277 281 284 280 261 246 247 253 260 270 272 265 272 277 273 270 272 271 266
273 278 293 299 300 303 306 305 297 283 269 257 244 235 233 231 229 227 227 228 231 234 234 237 236 246 257 255 241 194 219 264 143 93 345 334 339 340 340 350 357 356 357 355 5 352 204 183 192 197 219 238 209 219 227 193 208 247 247 247 259 250 258 274 279 277 280 277 269 268 275 282 279 269 252 241 246 259 272 277 278 281 276 273 272 271 270 266
274 285 297 301 305 308 309 306 297 283 265 253 246 234 227 226 226 227 227 228 230 233 234 236 235 239 249 248 221 200 220 247 212 301 327 332 333 338 339 347 359 359 359 353 358 237 201 197 208 211 226 244 223 224 226 197 209 242 261 257 259 254 254 266 276 276 277 268 264 270 277 273 262 272 271 254 259 266 274 277 278 281 278 274 273 271 271 268
273 289 304 308 311 313 312 310 302 290 264 245 241 232 222 219 221 225 226 228 229 229 228 228 227 228 238 230 208 212 229 249 259 293 321 324 326 332 333 341 350 354 355 340 307 223 209 210 220 221 230 249 234 225 223 233 219 226 256 269 265 262 259 270 279 278 278 271 270 269 266 264 258 274 284 269 273 277 280 283 282 280 278 274 272 271 270 269
272 296 312 314 316 318 315 310 304 297 275 236 225 218 214 214 217 221 224 229 231 229 221 218 218 219 227 220 210 221 232 242 263 309 327 324 325 326 326 332 333 337 345 335 299 247 233 224 227 229 244 261 245 234 202 232 232 219 254 277 276 275 274 282 283 278 277 273 275 268 264 265 261 279 279 271 278 284 283 286 284 278 275 273 272 272 271 270
277 306 319 319 320 319 314 310 305 297 266 209 200 201 202 206 211 216 222 227 229 227 216 209 208 211 219 215 211 225 207 182 207 339 337 333 326 321 317 315 316 320 326 326 300 259 248 241 239 239 251 255 238 234 200 221 268 283 284 288 277 277 282 283 277 270 272 277 273 262 271 271 259 279 272 268 280 283 285 291 286 279 275 276 275 274 274 271
287 316 324 322 322 322 323 328 329 15 125 138 148 157 166 182 196 203 212 217 220 219 210 202 202 211 220 214 208 207 192 196 269 327 328 332 329 324 316 304 299 297 299 308 299 270 257 255 255 247 239 231 228 235 227 235 271 303 305 293 276 273 276 268 266 269 269 280 267 253 273 269 212 177 252 254 269 279 287 291 287 283 279 280 280 277 275 273
303 325 328 323 325 338 356 17 46 77 82 92 100 109 120 136 153 171 188 197 202 203 198 197 201 209 214 219 220 218 220 237 282 308 310 317 320 319 312 298 288 279 275 282 288 279 264 261 260 254 250 251 248 243 241 242 272 290 298 295 288 279 273 260 264 292 232 259 287 271 281 262 186 210 247 255 270 280 287 286 285 285 283 282 281 279 277 276
318 330 329 323 335 11 38 56 67 74 77 84 87 92 98 106 120 140 159 174 184 189 189 193 200 204 206 219 224 224 241 261 282 291 294 302 307 310 305 293 281 271 263 261 271 276 264 265 260 249 250 252 257 266 276 284 278 280 269 286 298 292 278 129 68 46 181 211 210 271 294 283 224 217 238 261 273 279 284 281 282 282 283 285 283 282 280 278
327 332 328 337 22 49 62 67 70 74 76 79 81 86 92 100 112 126 141 158 171 179 185 189 191 189 198 224 242 242 260 272 277 279 288 297 305 310 303 291 281 267 258 252 256 268 262 263 257 244 241 238 247 263 271 268 248 282 275 218 286 296 286 115 123 203 200 148 175 228 268 283 293 257 229 271 270 271 278 279 283 282 284 286 286 287 286 286
330 327 322 38 68 78 75 71 70 70 73 75 78 84 90 99 110 122 136 151 165 173 176 180 182 189 213 251 259 255 268 270 273 281 288 294 301 305 296 286 284 269 258 252 249 255 253 248 242 236 228 223 241 259 269 263 217 276 280 248 223 266 279 140 121 187 250 128 168 241 263 278 294 304 199 269 266 266 280 284 286 284 285 289 292 294 297 301
321 310 269 104 95 96 82 74 70 67 68 72 77 82 87 97 108 123 135 144 155 159 159 169 184 213 256 257 222 236 271 272 278 291 294 296 299 297 284 279 287 275 257 250 246 245 241 239 235 233 232 227 236 259 280 271 232 182 247 279 281 271 297 318 102 117 234 152 190 240 272 285 289 277 205 262 283 285 285 286 288 290 295 302 306 306 309 314
303 281 210 145 119 104 87 78 72 67 69 73 77 78 83 94 107 125 135 141 151 165 182 217 230 252 268 244 217 241 278 287 292 298 298 298 299 290 277 279 289 274 247 240 236 224 224 230 233 228 209 210 219 241 276 274 250 184 213 272 278 265 287 295 181 116 144 202 229 234 252 270 273 272 271 273 280 284 284 290 299 309 313 319 322 325 329 330
287 254 203 165 141 110 92 81 73 72 75 78 77 76 80 87 111 144 163 173 184 232 254 253 251 268 256 209 221 268 299 304 300 299 297 297 297 283 273 275 270 246 214 221 220 210 221 212 218 251 216 206 203 207 248 279 305 305 285 283 291 274 260 261 253 119 136 229 246 239 252 270 274 277 281 275 266 283 295 303 312 322 329 340 347 350 350 349
262 240 204 182 168 126 108 92 75 76 82 85 76 68 68 69 118 194 216 229 240 260 265 237 227 269 304 208 255 296 310 310 304 299 297 295 292 282 272 263 243 217 193 207 196 190 229 217 212 247 231 214 206 210 239 278 310 297 291 284 287 287 272 266 261 119 88 272 262 248 251 273 282 284 287 285 290 314 316 323 336 350 359 4 6 4 1 358
245 235 207 195 191 163 152 138 87 77 88 92 65 55 66 59 114 209 235 248 251 257 264 257 243 264 286 279 285 303 310 308 304 297 292 292 294 286 265 248 228 209 204 239 178 134 220 250 238 240 244 239 216 221 247 301 319 282 278 270 268 274 277 278 267 115 98 288 271 255 252 274 284 285 288 308 7 8 354 5 16 16 12 10 8 6 5 3
235 230 211 201 201 195 197 209 169 86 79 74 39 35 24 340 315 290 278 260 257 262 265 265 262 264 273 282 291 304 310 308 302 289 288 296 296 282 249 217 207 214 199 58 66 122 210 252 249 244 264 309 213 220 238 248 245 252 258 271 273 261 265 278 327 114 138 244 266 262 269 278 284 285 294 351 40 33 26 31 27 18 15 12 10 8 7 7
225 224 215 206 208 210 218 237 234 182 54 32 359 336 326 324 321 323 312 281 268 275 275 274 274 270 273 285 292 305 315 315 305 277 278 300 294 277 254 208 214 233 100 112 225 232 230 251 267 64 94 80 79 147 199 224 236 243 247 263 272 266 270 281 6 96 154 224 272 292 289 281 278 283 310 57 70 54 43 41 30 20 18 14 11 10 7 9
216 220 218 211 214 215 222 238 241 239 262 344 345 334 336 346 354 344 328 302 281 305 315 301 287 275 283 293 298 316 323 319 306 266 278 300 293 273 260 232 228 237 167 201 225 255 254 257 317 71 122 134 101 130 169 225 239 233 237 253 263 275 296 274 39 77 196 230 281 294 287 273 266 276 51 86 82 64 51 44 37 26 21 16 13 13 11 11
211 218 220 216 217 217 223 233 238 240 245 291 329 336 347 360 357 347 334 304 271 332 348 353 347 306 342 329 318 331 330 305 280 269 288 303 292 269 261 199 208 223 223 211 222 253 265 169 98 106 138 177 225 163 184 238 261 240 230 243 262 275 279 267 311 337 269 232 254 284 282 270 254 235 110 104 81 61 45 37 35 27 22 18 16 19 18 15
211 220 221 216 215 217 221 228 237 239 240 273 309 315 315 325 338 342 339 301 232 337 357 32 42 46 21 345 330 332 314 295 276 268 284 294 280 277 289 163 221 245 185 173 226 256 274 41 103 184 172 214 240 238 215 234 275 266 233 244 266 279 285 282 308 322 297 248 185 295 305 305 234 161 127 96 70 51 36 34 32 24 20 16 17 20 19 17
211 220 221 216 213 214 216 226 238 239 240 255 264 275 280 300 332 345 344 216 115 22 4 16 35 34 12 346 333 328 305 273 295 290 287 281 269 255 246 170 215 277 150 180 252 260 291 58 65 254 200 199 238 258 211 194 267 285 266 289 277 280 283 284 298 298 295 294 241 4 301 291 276 195 64 57 64 48 34 32 26 23 20 15 18 20 17 16
209 213 215 214 210 209 214 223 232 226 225 234 232 244 262 293 331 340 325 182 89 15 344 357 17 16 359 340 331 327 307 314 318 309 293 273 266 236 247 204 206 246 157 231 283 240 122 86 86 115 158 204 239 269 183 182 244 290 58 343 303 285 278 271 278 260 283 308 284 202 214 261 275 316 55 47 55 40 28 25 20 19 16 15 20 19 14 12
211 212 209 209 207 210 216 220 223 212 199 177 184 219 257 299 329 329 310 119 39 6 8 4 6 7 352 336 325 306 291 315 318 343 350 289 282 245 248 251 254 266 149 238 276 249 100 75 161 146 184 254 248 1 167 199 231 329 77 325 17 34 293 260 263 265 289 314 289 197 183 239 263 171 57 41 41 24 14 15 14 11 13 16 17 14 9 7
214 214 206 206 208 212 218 217 213 205 191 165 150 188 265 318 327 318 111 121 326 22 22 358 350 348 348 340 335 351 321 324 336 326 321 297 277 269 259 253 253 309 127 235 265 275 58 81 108 146 273 303 64 46 291 217 231 28 122 202 142 170 251 245 259 276 274 270 280 202 179 228 273 332 29 26 36 10 358 3 6 8 12 14 11 8 6 5
226 220 208 207 210 213 217 214 207 189 185 180 164 162 344 353 335 124 73 337 322 8 334 330 323 331 350 349 6 27 357 330 343 325 309 293 284 273 261 253 203 233 231 215 250 267 280 118 104 26 293 29 97 99 338 242 204 86 187 261 265 216 201 225 236 263 251 248 293 321 197 234 279 43 33 24 33 5 350 356 1 6 10 11 9 6 3 2
230 217 209 209 209 208 208 205 200 172 175 192 195 222 336 14 35 116 51 335 8 358 330 355 358 350 13 9 347 8 351 318 345 343 340 334 317 306 282 267 198 240 239 190 243 261 237 156 103 118 162 133 145 148 89 97 112 244 263 298 298 260 198 213 181 161 246 264 13 29 221 241 260 17 63 59 46 21 4 357 356 1 4 7 7 3 3 7
219 210 206 206 203 199 197 192 179 156 158 184 194 221 302 26 26 56 346 301 309 1 351 19 16 360 360 347 315 345 329 309 356 8 3 344 13 33 1 2 2 316 343 25 311 301 232 135 47 93 167 187 222 226 146 145 157 240 262 288 295 300 287 267 274 247 265 286 60 63 298 258 261 72 83 80 53 31 19 10 1 360 360 2 5 4 7 12
163 182 188 194 193 189 186 172 154 151 149 155 161 149 65 63 59 68 328 327 354 14 332 309 353 341 315 292 15 342 286 281 359 6 328 305 28 60 84 25 355 322 340 339 317 330 5 111 137 168 158 200 240 292 324 223 165 216 277 307 295 310 307 292 296 288 281 287 102 87 12 267 215 108 111 96 64 43 25 17 9 4 2 1 4 5 8 12
108 135 158 177 182 180 175 162 149 144 145 141 134 116 60 28 70 154 304 327 339 315 302 310 310 318 349 28 6 331 265 110 8 345 323 317 30 51 66 44 22 343 290 304 327 344 315 300 126 148 79 164 234 310 340 324 310 98 11 325 291 304 294 287 297 293 294 301 303 98 13 287 254 127 131 114 75 49 30 19 14 12 9 5 4 7 10 11
88 101 128 157 173 173 167 164 159 147 143 139 108 73 112 326 253 184 308 328 326 313 290 171 277 277 75 59 14 350 346 34 21 354 354 16 35 35 29 18 11 360 322 326 10 338 291 299 87 65 26 217 221 105 352 296 308 89 61 271 269 321 293 278 285 287 295 300 289 252 261 6 63 131 138 119 68 44 29 20 17 14 12 10 9 9 10 10
84 91 109 131 157 167 165 166 171 163 146 138 96 57 112 330 272 183 290 329 325 320 302 274 337 340 31 19 29 62 61 356 350 353 37 63 44 34 22 12 1 355 6 354 350 359 311 297 115 97 79 181 218 93 307 312 340 146 238 299 342 331 278 281 284 282 272 277 270 262 267 99 103 163 165 141 40 34 24 19 17 11 9 11 11 10 7 7
77 83 99 111 129 154 159 158 174 177 158 129 93 78 163 233 220 197 245 317 286 310 304 305 20 8 357 350 353 5 360 330 341 346 31 118 53 19 358 23 24 352 3 349 335 59 320 299 78 95 112 142 236 271 247 285 315 287 292 335 337 244 217 257 282 298 288 277 267 272 277 270 267 229 167 121 8 15 12 13 13 8 9 9 8 7 4 3
73 81 83 86 106 131 142 137 158 168 149 94 98 119 204 218 176 240 263 303 271 248 290 330 15 8 357 350 349 346 333 340 354 350 18 71 55 24 359 12 32 355 338 305 305 52 310 296 339 64 94 130 195 246 257 187 176 317 308 321 328 279 264 269 281 299 294 286 281 277 279 276 273 280 67 1 357 1 359 5 9 7 7 3 1 2 0 358
91 85 64 73 111 120 120 123 135 144 131 87 125 139 223 280 154 241 280 313 274 261 279 16 5 13 58 5 334 349 340 349 348 334 25 33 37 45 21 355 354 345 336 301 307 352 288 283 304 214 174 187 200 263 330 341 111 169 257 254 46 272 282 288 288 296 285 280 285 286 282 281 285 59 20 358 359 357 355 3 6 5 5 0 357 356 355 354
106 83 59 87 125 120 112 120 118 110 95 76 93 111 98 339 105 100 342 8 8 341 359 105 317 348 47 45 332 355 354 357 340 317 34 29 25 82 35 3 326 329 330 285 257 335 269 249 279 267 228 271 303 6 339 323 357 162 301 11 354 295 281 283 270 240 268 276 285 292 283 282 66 80 36 16 13 360 355 1 1 359 1 359 356 354 350 349
111 86 70 107 131 126 120 113 91 65 75 106 81 83 79 65 81 59 26 54 55 35 44 71 48 8 16 24 48 2 316 324 341 305 51 34 24 75 28 355 312 306 324 286 134 2 331 262 284 296 310 308 320 9 349 300 29 45 1 5 343 319 305 291 283 175 237 280 280 285 284 289 59 74 48 35 21 8 1 358 356 354 352 352 352 351 348 344
99 89 86 120 133 132 122 93 41 29 94 80 64 75 63 59 70 48 51 61 40 43 64 71 49 44 41 12 13 273 303 314 341 345 74 69 33 33 360 349 326 288 319 336 31 4 338 280 280 284 290 293 308 21 59 40 86 85 54 36 350 317 333 303 300 311 302 287 279 271 277 287 68 68 60 51 28 16 9 0 356 352 349 347 345 346 345 340
89 91 104 131 137 130 113 86 34 43 65 64 73 72 54 55 60 48 41 33 29 35 43 62 48 26 57 32 334 272 310 313 263 7 56 110 81 35 354 2 3 319 326 2 61 349 303 225 284 288 285 277 264 86 75 99 119 106 54 50 27 301 351 303 292 306 297 287 290 275 273 291 83 88 58 47 25 14 10 3 356 350 347 345 343 344 344 338
95 88 86 118 151 146 99 98 125 96 82 103 89 60 54 62 46 31 29 20 23 31 34 56 49 17 44 39 321 313 314 328 56 36 45 118 99 50 1 10 22 20 1 8 344 339 337 282 311 313 313 313 296 88 353 227 276 331 9 47 32 354 327 285 274 291 274 276 293 282 278 307 84 113 30 15 6 355 355 357 352 346 345 345 343 342 340 335
103 84 68 70 118 147 98 94 115 117 135 114 78 40 28 68 50 37 57 54 34 34 55 54 19 348 11 240 281 6 348 341 357 26 50 29 88 39 3 9 24 23 9 6 336 302 308 306 299 310 316 327 326 316 323 326 315 325 50 74 24 8 327 304 298 288 279 299 311 286 285 314 339 340 341 349 344 335 336 341 344 343 342 339 338 337 336 332
119 91 56 56 67 80 82 76 80 109 130 114 85 35 4 60 57 39 56 63 40 39 68 52 5 305 8 5 5 25 24 12 330 335 26 4 331 357 352 2 23 18 19 26 11 250 237 296 265 281 281 289 302 298 310 325 312 306 318 352 83 66 321 313 298 290 313 321 302 302 324 325 321 322 326 330 330 327 325 330 336 339 338 336 334 331 330 328
115 95 46 72 72 72 70 59 56 89 124 108 97 29 13 23 14 36 52 57 42 40 75 71 33 22 8 1 8 20 355 335 352 80 24 1 298 324 340 8 28 17 32 37 17 37 218 315 35 315 287 282 291 292 299 312 303 304 316 334 61 59 347 335 318 324 343 322 292 326 333 319 310 316 321 324 327 325 321 323 329 333 333 332 329 325 324 324
110 111 104 127 112 54 54 55 61 75 73 71 87 26 23 38 31 38 36 42 54 32 27 83 41 29 15 342 334 7 347 336 35 78 345 354 329 323 344 70 43 21 33 40 26 45 245 304 80 343 287 280 283 286 294 307 302 307 318 338 12 17 26 34 7 356 356 326 302 320 320 307 303 310 315 326 334 329 321 318 321 327 329 329 326 323 322 322
119 117 102 106 97 77 91 85 76 77 60 46 60 36 30 52 54 54 4 358 67 25 11 40 28 14 20 8 9 44 10 355 356 336 254 15 336 312 339 93 47 24 26 33 34 34 292 292 93 275 278 278 283 284 289 323 309 311 347 31 21 16 31 32 11 351 346 324 310 315 307 297 300 311 324 335 337 331 323 316 315 320 327 327 323 320 320 320
137 133 120 111 94 64 64 66 61 83 58 28 50 46 16 44 58 74 19 15 41 17 9 23 7 356 35 44 50 87 30 294 261 261 226 214 312 239 348 348 31 15 12 23 26 1 350 16 74 301 282 281 276 256 321 324 316 316 39 44 25 21 28 17 354 340 336 320 312 312 301 293 311 348 337 327 329 329 325 321 317 318 323 324 320 318 318 316
139 137 129 119 92 18 23 47 25 79 60 23 43 74 31 42 54 96 65 40 42 32 2 351 342 320 172 44 48 50 307 281 259 261 255 250 274 46 28 354 329 330 353 34 346 348 5 349 61 17 306 299 127 26 316 319 339 96 51 28 20 25 19 352 334 324 319 314 310 309 304 302 325 338 325 322 328 330 327 323 318 317 319 319 318 318 317 314
137 135 129 118 90 12 16 38 13 59 92 33 32 62 56 63 164 165 117 61 45 40 11 345 329 276 191 30 13 334 308 290 268 268 261 237 216 115 57 66 86 335 313 108 349 14 34 320 333 346 309 302 92 335 314 303 177 116 49 26 17 18 358 334 325 317 312 310 304 301 303 307 319 327 327 326 328 327 324 318 314 313 313 314 315 313 310 310